Weather Roundup
Issued by NWS

Home | Current Version | Previous Version | Text Only | Print | Product List | Glossary On
Versions: 1 2 3 4 5 6 7 8 9 10 11 12 13 14 15 16 17 18 19 20 21 22 23 24 25 26 27 28 29 30 31 32 33 34 35 36 37 38 39 40 41 42 43 44 45 46 47 48 49 50
632
NZUS93 KARX 110110
HRRWXR

CURRENT HOURLY OBSERVATIONS ACROSS
MUCH OF THE UPPER MISSISSIPPI VALLEY
NATIONAL WEATHER SERVICE LA CROSSE WI
700 PM CST SAT DEC 10 2016


...SOUTHEAST MINNESOTA...


CITY           SKY/WX    TMP DP  RH WIND       PRES   REMARKS
ROCHESTER      LGT SNOW  12   9  87 E10       30.20F FOG     WCI  -1
ROCHESTER/MAYO CLOUDY    12  10  89 E7        30.22F WCI   2
WINONA         LGT SNOW  18  14  86 SE6       30.29F WCI   9
AUSTIN         LGT SNOW  14  10  85 E12       30.18F WCI   0
ALBERT LEA     LGT SNOW  18  16  93 E12       30.16F WCI   5
DODGE CENTER   LGT SNOW  10   9  92 E10       30.18F WCI  -3
PRESTON        LGT SNOW  12   9  87 E5        30.22F WCI   4
OWATONNA       LGT SNOW  12   9  85 E13       30.18F WCI  -3
FARIBAULT      NOT AVBL
$$

...ELSEWHERE IN MINNESOTA...


CITY           SKY/WX    TMP DP  RH WIND       PRES   REMARKS
MINNEAPOLIS    LGT SNOW  12   7  80 SE8       30.24F WCI   0
INTNL FALLS    CLOUDY   -12 -18  74 CALM      30.26F
DULUTH         CLOUDY     1  -4  79 N5        30.23F WCI  -9
RED WING       LGT SNOW  12   9  85 E7        30.25F WCI   2
REDWOOD FALLS  LGT SNOW  12   7  80 E10       30.16F WCI  -1
MANKATO        LGT SNOW  12   8  84 E15       30.17F FOG     WCI  -4
WORTHINGTON    LGT SNOW  14  11  87 E15       30.04F FOG     WCI  -1
FAIRMONT       LGT SNOW  15  12  88 E15       30.12F FOG     WCI   0
$$

...SOUTHWEST WISCONSIN...


CITY           SKY/WX    TMP DP  RH WIND       PRES   REMARKS
LA CROSSE      LGT SNOW  16  12  84 E6        30.30F FOG     WCI   7
PRAIRIE DU CHI LGT SNOW  20  16  85 E5        30.27F WCI  14
BOSCOBEL       LGT SNOW  20  16  84 NE3       30.29F FOG
LONE ROCK      LGT SNOW  19  15  84 E8        30.31F FOG     WCI   9
PLATTEVILLE    CLOUDY    20  20  98 E8        30.26F WCI  11
FORT MC COY    LGT SNOW  15  13  91 CALM      30.30F
CAMP DOUGLAS   LGT SNOW  15  11  85 E6        30.29F FOG     WCI   6
MAUSTON-NEW LI LGT SNOW  16  13  88 CALM      30.29F
VIROQUA        CLOUDY    15  13  93 E9        30.24F WCI   3
WIS DELLS      LGT SNOW  17  14  89 E5        30.30F VSB 3/4 WCI  10
$$

...ELSEWHERE IN WISCONSIN...


CITY           SKY/WX    TMP DP  RH WIND       PRES   REMARKS
MILWAUKEE      LGT SNOW  22  17  81 SW7       30.36F WCI  13
MADISON        LGT SNOW  19  16  88 SE7       30.32F VSB 1   WCI  10
GREEN BAY      CLOUDY    19   9  65 CALM      30.35F
EAU CLAIRE     LGT SNOW  13   8  81 E6        30.27F WCI   4
BLACK RVR FLS  LGT SNOW  15  11  83 CALM      30.30F
MEDFORD        CLOUDY     9   2  75 CALM      30.25S
WAUSAU         CLOUDY    10   3  73 E5        30.27F WCI   2
WIS RAPIDS     LGT SNOW  14  11  87 SE3       30.31F FOG
MARSHFIELD     LGT SNOW  12   8  84 S5        30.26S FOG     WCI   4
RICE LAKE      CLOUDY    12   4  71 SE6       30.27F WCI   2
$$

...NORTHEAST IOWA...


CITY           SKY/WX    TMP DP  RH WIND       PRES   REMARKS
WATERLOO       CLOUDY    21  17  84 SE15      30.19F WCI   8
DUBUQUE        CLOUDY    20  17  88 SE9       30.24F WCI   9
DECORAH        LGT SNOW  18  14  86 E8        30.21F WCI   7
MASON CITY     LGT SNOW  19  15  84 SE13      30.17F FOG     WCI   6
CHARLES CITY   LGT SNOW  19  18  93 E14       30.19F WCI   6
OELWEIN        CLOUDY    19  19 100 SE14      30.21F WCI   6
$$

...ELSEWHERE IN IOWA...


CITY           SKY/WX    TMP DP  RH WIND       PRES   REMARKS
DES MOINES     CLOUDY    25  18  74 E10G22    30.12F WCI  15
IOWA CITY      CLOUDY    24  20  84 SE12      30.24F WCI  13
FORT DODGE     CLOUDY    21  18  86 SE16G22   30.11F WCI   7
MARSHALLTOWN   CLOUDY    22  19  89 SE16      30.15F WCI   8
CEDAR RAPIDS   CLOUDY    22  20  92 SE12      30.22F WCI  10
$$

...NORTHERN ILLINOIS...


CITY           SKY/WX    TMP DP  RH WIND       PRES   REMARKS
CHICAGO-OHARE  LGT SNOW  21  19  92 S5        30.37F VSB 1   WCI  15
CHICAGO-MIDWAY LGT SNOW  23  18  81 S7        30.39F FOG     WCI  15
MOLINE         CLOUDY    24  19  81 E12       30.29F WCI  13
ROCKFORD       LGT SNOW  21  18  88 SE7       30.36F FOG     WCI  12
PEORIA         FLURRIES  25  21  85 E10       30.30F WCI  15
$$

NOTE: "FAIR" INDICATES FEW OR NO CLOUDS BELOW 12,000 FEET WITH NO
SIGNIFICANT WEATHER AND/OR OBSTRUCTIONS TO VISIBILITY. WIND
SPEEDS ARE IN MILES-PER-HOUR.




USA.gov is the U.S. government's official web portal to all federal, state and local government web resources and services.